Starlink 31459

operational
NORAD ID: 59233 Int'l Des: 2024-049 Owner: SPXS Country: US Constellation: starlink
LEOCIRCULAR

关于 Starlink 31459

正在加载描述...

实时位置

正在加载3D地球...

即将过境

高度历史

Altitude vs Time

uPlot chart will show altitude changes over time

两行轨道根数

1 59233U 24049C 25351.15609626 .00000808 00000-0 38875-4 0 9993
2 59233 43.0005 249.6425 0000552 286.5206 73.5585 15.27574420 99771
Epoch: Dec 17, 2025 • Age: 12 hours

当前状态

高度 484.2 km
速度 7.63 km/s
星下点 31.43°N, 70.26°E
发射日期 Mar 16, 2024
运行时间 1.7 years
类型 internet

技术详情

分类 Payload
质量 730.00 kg
干质量 700.00 kg
总质量 730.00 kg
长度 0.30 m
直径 4.10 m
跨度 29.00 m
形状 Box + pan
制造商 SPXS
平台类型 Starlink V2M
阶段状态 In Orbit
所有者/国家 SPXS/US

大型星座

Loading constellations...